This is the latest recevied weather packets stored in our database for station/object OE-11331. If no packets are shown the sender has not sent any weather packets the latest 10 day(s).
| Time | Temp. | Humidity | Pressure | Rain* | Wind** | Luminosity | Snow |
|---|---|---|---|---|---|---|---|
| 1787751334 | 28.33° C | 48% | 1014.6 hPa | 0 mm | - | 693 W/m² | - |
| 1787749907 | 27.78° C | 47% | 1014.8 hPa | 0 mm | - | 725 W/m² | - |
| 1787749534 | 27.22° C | 46% | 1015 hPa | 0 mm | - | 747 W/m² | - |
| 1787748934 | 27.22° C | 47% | 1015.2 hPa | 0 mm | - | 758 W/m² | - |
| 1787748107 | 27.22° C | 48% | 1015.2 hPa | 0 mm | - | 768 W/m² | - |
| 1787747734 | 26.67° C | 49% | 1015.6 hPa | 0 mm | - | 779 W/m² | - |
| 1787747133 | 26.11° C | 51% | 1015.6 hPa | 0 mm | - | 790 W/m² | - |
| 1787746307 | 26.11° C | 50% | 1015.6 hPa | 0 mm | - | 801 W/m² | - |
| 1787745934 | 25.56° C | 50% | 1015.8 hPa | 0 mm | - | 801 W/m² | - |
| 1787745333 | 25.56° C | 52% | 1015.9 hPa | 0 mm | - | 812 W/m² | - |
| 1787744506 | 25.56° C | 50% | 1016.1 hPa | 0 mm | - | 812 W/m² | - |
| 1787744133 | 25.56° C | 56% | 1016.1 hPa | 0 mm | - | 823 W/m² | - |
| 1787743534 | 25° C | 56% | 1016.3 hPa | 0 mm | - | 823 W/m² | - |
| 1787742706 | 25° C | 54% | 1016.4 hPa | 0 mm | - | 823 W/m² | - |
| 1787742332 | 25° C | 54% | 1016.6 hPa | 0 mm | - | 812 W/m² | - |
| 1787741732 | 24.44° C | 56% | 1016.8 hPa | 0 mm | - | 812 W/m² | - |
| 1787740906 | 23.89° C | 58% | 1016.9 hPa | 0 mm | - | 801 W/m² | - |
| 1787740533 | 23.89° C | 60% | 1017.1 hPa | 0 mm | - | 801 W/m² | - |
| 1787739933 | 23.33° C | 62% | 1017.2 hPa | 0 mm | - | 790 W/m² | - |
| 1787739105 | 22.78° C | 62% | 1017.5 hPa | 0 mm | - | 779 W/m² | - |
| 1787738733 | 23.33° C | 66% | 1017.6 hPa | 0 mm | - | 768 W/m² | - |
| 1787738133 | 22.22° C | 66% | 1017.8 hPa | 0 mm | - | 758 W/m² | - |
| 1787737306 | 22.22° C | 68% | 1017.9 hPa | 0 mm | - | 747 W/m² | - |
| 1787736932 | 22.22° C | 69% | 1017.8 hPa | 0 mm | - | 725 W/m² | - |
| 1787736333 | 21.67° C | 68% | 1018 hPa | 0 mm | - | 714 W/m² | - |
* Rain latest hour (hover to see other rain measurements)
** Current wind speed in m/s (hover to see current wind gust speed)